Regional Weather Roundup
Issued by NWS

Home | Current Version | Previous Version | Graphics & Text | Print | Product List | Glossary On
Versions: 1 2 3 4 5 6 7 8 9 10 11 12 13 14 15 16 17 18 19 20 21 22 23 24 25 26 27 28 29 30 31 32 33 34 35 36 37 38 39 40 41 42 43 44 45 46 47 48 49 50
000
ASUS43 KFSD 290310
RWRSD

WEATHER ROUNDUP FOR SOUTH DAKOTA
NATIONAL WEATHER SERVICE SIOUX FALLS SD
1000 PM CDT THU AUG 28 2014

NOTE: "FAIR" INDICATES FEW OR NO CLOUDS BELOW 12,000 FEET WITH NO
SIGNIFICANT WEATHER AND/OR OBSTRUCTIONS TO VISIBILITY.


SDZ001>005-009-010-012>017-290400-
NORTHWEST AND NORTH CENTRAL SOUTH DAKOTA

CITY           SKY/WX    TMP DP  RH WIND       PRES   REMARKS
BUFFALO          N/A     67  57  70 S9        29.84R
FAITH            N/A     65  62  90 S9        29.89S
MOBRIDGE       MOCLDY    65  65 100 E6        29.84S
$$

SDZ012>016-024>037-041>051-057-063-072>074-290400-
SOUTHWEST AND SOUTH CENTRAL SOUTH DAKOTA

CITY           SKY/WX    TMP DP  RH WIND       PRES   REMARKS
RAPID CTY ARPT MOCLDY    64  61  90 CALM      29.94R
PIERRE         MOCLDY    68  67  96 NW7       29.84R
CUSTER         PTCLDY    56  53  90 SW5       30.08R
ELLSWORTH AFB  PTCLDY    67  60  78 S2        29.93S
PHILIP         MOCLDY    65  62  90 NW5       29.88S
PINE RIDGE     PTCLDY    61  55  81 W3        29.95S
WINNER         CLOUDY    70  67  90 SW3       29.88S
$$

SDZ004>011-016>023-039-040-290400-
NORTHEAST SOUTH DAKOTA

CITY           SKY/WX    TMP DP  RH WIND       PRES   REMARKS
ABERDEEN       LGT RAIN  65  65 100 E8        29.82F
WATERTOWN      FOG       65  65 100 E5        29.86F VSB 3/4
SISSETON         N/A     65  65 100 SE5       29.86S
$$

SDZ017-020-022-023-036>040-048>070-290400-
SOUTHEAST SOUTH DAKOTA

CITY           SKY/WX    TMP DP  RH WIND       PRES   REMARKS
SIOUX FALLS    LGT RAIN  71  69  93 E8        29.83F FOG
HURON          CLOUDY    69  68  96 E6        29.81S
CHAMBERLAIN    CLOUDY    68  67  98 CALM      29.85R
MITCHELL       MOCLDY    71  69  93 SE7       29.81F
YANKTON        MOCLDY    73  70  88 E3        29.81S
$$

ABBREVIATIONS USED IN REMARKS
   TC - TEMPERATURE IN CELSIUS
  WCI - WIND CHILL INDEX
   HX - HEAT INDEX
  VSB - VISIBILITY




USA.gov is the U.S. government's official web portal to all federal, state and local government web resources and services.